Weather History for Aberdeen, United Kingdom

Change the Weather History Date:

Tuesday, February 26, 2013

  Actual Average Record
Temperature  
Mean Temperature 35 °F -  
Max Temperature 46 °F 46 °F 53 °F (2008)
Min Temperature 24 °F 34 °F 21 °F (2001)
Degree Days  
Heating Degree Days 30    
Moisture  
Dew Point 28 °F    
Average Humidity 81    
Maximum Humidity 100    
Minimum Humidity 35    
Precipitation  
Precipitation 0.01 in 0.07 in - ()
Sea Level Pressure  
Sea Level Pressure 30.67 in    
Wind  
Wind Speed 3 mph ()    
Max Wind Speed 9 mph    
Max Gust Speed -    
Visibility 6.0 miles    
Events Fog    
Averages and records for this station are not official NWS values.
T = Trace of Precipitation, MM = Missing Value Source: Averaged Metar Reports

Daily Weather History Graph

Daily Weather History Graph

Search for Another Location

Airport:

Trip Planner

Search our weather history database for the weather conditions in past years. The results will help you decide how hot, cold, wet, or windy it might be!

Date:

Astronomy

Feb. 26, 2013 Rise Set
Actual Time 7:09 AM GMT 5:34 PM GMT
Civil Twilight 6:30 AM GMT 6:13 PM GMT
Nautical Twilight 5:46 AM GMT 6:57 PM GMT
Astronomical Twilight 5:02 AM GMT 7:42 PM GMT
Moon 6:59 PM GMT (2/26) 6:47 AM GMT (2/26)
Length of Visible Light 11h 42m
Length of Day
10h 24m
Full, 100% of the Moon is Illuminated
Feb 26
Full
Mar 4
Last Quarter
Mar 11
New
Mar 19
First Quarter
Mar 27
Full

Hourly Weather History & Observations

Time (GMT) Temp. Windchill Dew Point Humidity Pressure Visibility Wind Dir Wind Speed Gust Speed Precip Events Conditions
12:20 AM 26.6 °F 22.6 °F 26.6 °F 100% 30.66 in 5.6 mi NNW 3.5 mph - N/A   Unknown
12:50 AM 26.6 °F - 24.8 °F 93% 30.66 in 4.3 mi North 2.3 mph - N/A   Unknown
1:20 AM 26.6 °F - 24.8 °F 93% 30.66 in 0.6 mi Calm Calm - N/A   Mist
1:50 AM 24.8 °F - 24.8 °F 100% 30.66 in 4.3 mi Calm Calm - N/A Fog Patches of Fog
2:20 AM 26.6 °F - 24.8 °F 93% 30.66 in 0.2 mi North 2.3 mph - N/A Fog Fog
2:50 AM 26 °F - 24 °F 91% 30.67 in 3 mi North 1.2 mph - -   Mist
2:50 AM 24.8 °F - 24.8 °F 100% 30.66 in 3.7 mi Calm Calm - N/A Fog Patches of Fog
3:20 AM 24.8 °F - 24.8 °F 100% 30.66 in 3.1 mi North 2.3 mph - N/A   Unknown
3:50 AM 24.8 °F - 23.0 °F 93% 30.66 in 4.3 mi Calm Calm - N/A   Unknown
4:20 AM 24.8 °F - 24.8 °F 100% 30.66 in 4.3 mi NW 2.3 mph - N/A   Unknown
4:50 AM 24.8 °F - 24.8 °F 100% 30.66 in - Calm Calm - N/A   Clear
5:20 AM 24.8 °F - 24.8 °F 100% 30.66 in - Calm Calm - N/A   Clear
5:50 AM 25 °F - 24 °F 93% 30.68 in 6 mi North 1.2 mph - -   Mist
5:50 AM 24.8 °F - 24.8 °F 100% 30.66 in - Calm Calm - N/A   Clear
6:20 AM 24.8 °F - 23.0 °F 93% 30.66 in - North 2.3 mph - N/A   Clear
6:50 AM 24.8 °F - 23.0 °F 93% 30.66 in - Calm Calm - N/A   Clear
7:20 AM 24.8 °F - 24.8 °F 100% 30.69 in - Calm Calm - N/A   Clear
7:50 AM 26.6 °F - 24.8 °F 93% 30.69 in - Calm Calm - N/A   Clear
8:20 AM 28.4 °F - 26.6 °F 93% 30.69 in - Calm Calm - N/A   Clear
8:50 AM 29 °F - 27 °F 89% 30.70 in 9 mi NNE 2.3 mph - -  
8:50 AM 28.4 °F - 28.4 °F 100% 30.69 in - Variable 2.3 mph - N/A   Clear
9:20 AM 30.2 °F - 28.4 °F 93% 30.69 in - North 2.3 mph - N/A   Clear
9:50 AM 33.8 °F - 30.2 °F 87% 30.69 in - NNW 2.3 mph - N/A   Clear
10:20 AM 35.6 °F - 32.0 °F 87% 30.69 in - Calm Calm - N/A   Clear
10:50 AM 39.2 °F - 32.0 °F 75% 30.69 in - Variable 2.3 mph - N/A   Clear
11:20 AM 44.6 °F 41.4 °F 32.0 °F 61% 30.69 in - South 5.8 mph - N/A   Clear
11:50 AM 46 °F - 27 °F 35% 30.70 in 22 mi South 9.2 mph - -  
11:50 AM 44.6 °F 40.2 °F 28.4 °F 53% 30.69 in - South 8.1 mph - N/A   Clear
12:20 PM 46.4 °F 42.9 °F 26.6 °F 46% 30.69 in - South 6.9 mph - N/A   Clear
12:50 PM 46.4 °F 42.4 °F 28.4 °F 50% 30.69 in - South 8.1 mph - N/A   Clear
1:20 PM 46.4 °F 41.9 °F 26.6 °F 46% 30.69 in - South 9.2 mph - N/A   Clear
1:50 PM 46.4 °F 41.9 °F 26.6 °F 46% 30.66 in - SSE 9.2 mph - N/A   Clear
2:20 PM 46.4 °F 41.9 °F 26.6 °F 46% 30.66 in - South 9.2 mph - N/A   Clear
2:50 PM 46 °F - 31 °F 44% 30.67 in 22 mi South 8.1 mph - -  
2:50 PM 46.4 °F 42.9 °F 30.2 °F 53% 30.66 in - South 6.9 mph - N/A   Clear
3:20 PM 46.4 °F 42.4 °F 32.0 °F 57% 30.66 in - SSE 8.1 mph - N/A   Clear
3:50 PM 44.6 °F 40.2 °F 32.0 °F 61% 30.66 in - SSE 8.1 mph - N/A   Clear
4:20 PM 42.8 °F 38.0 °F 32.0 °F 66% 30.66 in - SSE 8.1 mph - N/A   Clear
4:50 PM 41.0 °F 36.4 °F 32.0 °F 70% 30.66 in - South 6.9 mph - N/A   Clear
5:20 PM 39.2 °F 34.2 °F 32.0 °F 75% 30.66 in - South 6.9 mph - N/A   Clear
5:50 PM 38 °F - 33 °F 75% 30.67 in 14 mi South 6.9 mph - -  
5:50 PM 35.6 °F 29.9 °F 32.0 °F 87% 30.66 in - South 6.9 mph - N/A   Clear
6:20 PM 35.6 °F 29.9 °F 32.0 °F 87% 30.66 in - SSW 6.9 mph - N/A   Clear
6:50 PM 37.4 °F 34.9 °F 32.0 °F 81% 30.66 in - SSW 3.5 mph - N/A   Clear
7:20 PM 37.4 °F 33.8 °F 32.0 °F 81% 30.66 in - South 4.6 mph - N/A   Clear
7:50 PM 35.6 °F 30.7 °F 30.2 °F 81% 30.66 in - South 5.8 mph - N/A   Clear
8:20 PM 33.8 °F 28.6 °F 30.2 °F 87% 30.66 in - South 5.8 mph - N/A   Clear
8:50 PM 35 °F - 30 °F 74% 30.69 in 14 mi SSE 3.5 mph - -  
8:50 PM 32.0 °F 26.4 °F 28.4 °F 87% 30.66 in - South 5.8 mph - N/A   Clear
9:20 PM 32.0 °F - 30.2 °F 93% 30.69 in - Variable 2.3 mph - N/A   Clear
9:50 PM 33.8 °F 29.6 °F 30.2 °F 87% 30.69 in - SSE 4.6 mph - N/A   Clear
10:20 PM 33.8 °F 30.8 °F 30.2 °F 87% 30.66 in - Variable 3.5 mph - N/A   Clear
10:50 PM 32.0 °F 28.7 °F 28.4 °F 87% 30.66 in - South 3.5 mph - N/A   Clear
11:20 PM 30.2 °F - 28.4 °F 93% 30.66 in 6.2 mi Calm Calm - N/A   Unknown
11:50 PM 32 °F - 29 °F 82% 30.68 in 13 mi North 1.2 mph - -  
11:50 PM 30.2 °F 25.4 °F 26.6 °F 86% 30.66 in - South 4.6 mph - N/A   Clear